Year,Month,Day,Hour,Minute,Value (Times are PST for temperature in C)
2016,08,18,00,00,15.50
2016,08,18,00,01,15.50
2016,08,18,00,02,15.50
2016,08,18,00,03,15.50
2016,08,18,00,04,15.40
2016,08,18,00,05,15.40
2016,08,18,00,06,15.40
2016,08,18,00,07,15.40
2016,08,18,00,08,15.50
2016,08,18,00,09,15.50
2016,08,18,00,10,15.50
2016,08,18,00,11,15.50
2016,08,18,00,12,15.50
2016,08,18,00,13,15.50
2016,08,18,00,14,15.50
2016,08,18,00,15,15.50
2016,08,18,00,16,15.50
2016,08,18,00,17,15.50
2016,08,18,00,18,15.50
2016,08,18,00,19,15.50
2016,08,18,00,20,15.50
2016,08,18,00,21,15.50
2016,08,18,00,22,15.50
2016,08,18,00,23,15.50
2016,08,18,00,24,15.50
2016,08,18,00,25,15.50
2016,08,18,00,26,15.50
2016,08,18,00,27,15.50
2016,08,18,00,28,15.50
2016,08,18,00,29,15.50
2016,08,18,00,30,15.60
2016,08,18,00,31,15.50
2016,08,18,00,32,15.50
2016,08,18,00,33,15.60
2016,08,18,00,34,15.60
2016,08,18,00,35,15.60
2016,08,18,00,36,15.60
2016,08,18,00,37,15.60
2016,08,18,00,38,15.60
2016,08,18,00,39,15.60
2016,08,18,00,40,15.60
2016,08,18,00,41,15.60
2016,08,18,00,42,15.60
2016,08,18,00,43,15.60
2016,08,18,00,44,15.70
2016,08,18,00,45,15.70
2016,08,18,00,46,15.70
2016,08,18,00,47,15.70
2016,08,18,00,48,15.70
2016,08,18,00,49,15.70
2016,08,18,00,50,15.70
2016,08,18,00,51,15.70
2016,08,18,00,52,15.70
2016,08,18,00,53,15.70
2016,08,18,00,54,15.70
2016,08,18,00,55,15.70
2016,08,18,00,56,15.70
2016,08,18,00,57,15.70
2016,08,18,00,58,15.70
2016,08,18,00,59,15.70
2016,08,18,01,00,15.70
2016,08,18,01,01,15.70
2016,08,18,01,02,15.70
2016,08,18,01,03,15.80
2016,08,18,01,04,15.80
2016,08,18,01,05,15.80
2016,08,18,01,06,15.90
2016,08,18,01,07,16.00
2016,08,18,01,08,16.00
2016,08,18,01,09,16.00
2016,08,18,01,10,16.10
2016,08,18,01,11,16.20
2016,08,18,01,12,16.30
2016,08,18,01,13,16.40
2016,08,18,01,14,16.50
2016,08,18,01,15,16.60
2016,08,18,01,16,16.60
2016,08,18,01,17,16.80
2016,08,18,01,18,16.90
2016,08,18,01,19,17.10
2016,08,18,01,20,17.30
2016,08,18,01,21,17.40
2016,08,18,01,22,17.60
2016,08,18,01,23,17.80
2016,08,18,01,24,18.00
2016,08,18,01,25,18.20
2016,08,18,01,26,18.30
2016,08,18,01,27,18.40
2016,08,18,01,28,18.60
2016,08,18,01,29,18.80
2016,08,18,01,30,19.00
2016,08,18,01,31,19.10
2016,08,18,01,32,19.30
2016,08,18,01,33,19.40
2016,08,18,01,34,19.50
2016,08,18,01,35,19.60
2016,08,18,01,36,19.60
2016,08,18,01,37,19.70
2016,08,18,01,38,19.80
2016,08,18,01,39,19.90
2016,08,18,01,40,19.90
2016,08,18,01,41,20.00
2016,08,18,01,42,20.00
2016,08,18,01,43,20.10
2016,08,18,01,44,20.20
2016,08,18,01,45,20.20
2016,08,18,01,46,20.20
2016,08,18,01,47,20.30
2016,08,18,01,48,20.30
2016,08,18,01,49,20.30
2016,08,18,01,50,20.30
2016,08,18,01,51,20.30
2016,08,18,01,52,20.30
2016,08,18,01,53,20.40
2016,08,18,01,54,20.40
2016,08,18,01,55,20.40
2016,08,18,01,56,20.40
2016,08,18,01,57,20.40
2016,08,18,01,58,20.50
2016,08,18,01,59,20.50
2016,08,18,02,00,20.60
2016,08,18,02,01,20.60
2016,08,18,02,02,20.60
2016,08,18,02,03,20.60
2016,08,18,02,04,20.60
2016,08,18,02,05,20.70
2016,08,18,02,06,20.70
2016,08,18,02,07,20.70
2016,08,18,02,08,20.70
2016,08,18,02,09,20.70
2016,08,18,02,10,20.80
2016,08,18,02,11,20.80
2016,08,18,02,12,21.00
2016,08,18,02,13,21.00
2016,08,18,02,14,21.10
2016,08,18,02,15,21.10
2016,08,18,02,16,21.10
2016,08,18,02,17,21.10
2016,08,18,02,18,21.00
2016,08,18,02,19,21.00
2016,08,18,02,20,20.90
2016,08,18,02,21,20.90
2016,08,18,02,22,20.90
2016,08,18,02,23,20.80
2016,08,18,02,24,20.80
2016,08,18,02,25,20.70
2016,08,18,02,26,20.70
2016,08,18,02,27,20.60
2016,08,18,02,28,20.60
2016,08,18,02,29,20.60
2016,08,18,02,30,20.50
2016,08,18,02,31,20.40
2016,08,18,02,32,20.40
2016,08,18,02,33,20.40
2016,08,18,02,34,20.30
2016,08,18,02,35,20.30
2016,08,18,02,36,20.30
2016,08,18,02,37,20.20
2016,08,18,02,38,20.20
2016,08,18,02,39,20.20
2016,08,18,02,40,20.20
2016,08,18,02,41,20.10
2016,08,18,02,42,20.10
2016,08,18,02,43,20.10
2016,08,18,02,44,20.10
2016,08,18,02,45,20.10
2016,08,18,02,46,20.10
2016,08,18,02,47,20.10
2016,08,18,02,48,20.00
2016,08,18,02,49,20.10
2016,08,18,02,50,20.10
2016,08,18,02,51,20.10
2016,08,18,02,52,20.10
2016,08,18,02,53,20.10
2016,08,18,02,54,20.10
2016,08,18,02,55,20.10
2016,08,18,02,56,20.10
2016,08,18,02,57,20.10
2016,08,18,02,58,20.00
2016,08,18,02,59,20.00
2016,08,18,03,00,19.90
2016,08,18,03,01,19.90
2016,08,18,03,02,19.90
2016,08,18,03,06,19.80
2016,08,18,03,07,19.80
2016,08,18,03,08,19.80
2016,08,18,03,09,19.80
2016,08,18,03,10,19.70
2016,08,18,03,11,19.70
2016,08,18,03,12,19.60
2016,08,18,03,13,19.50
2016,08,18,03,14,19.50
2016,08,18,03,15,19.40
2016,08,18,03,16,19.30
2016,08,18,03,17,19.30
2016,08,18,03,18,19.20
2016,08,18,03,19,19.20
2016,08,18,03,20,19.10
2016,08,18,03,21,19.10
2016,08,18,03,22,19.00
2016,08,18,03,23,19.00
2016,08,18,03,24,18.90
2016,08,18,03,25,18.80
2016,08,18,03,26,18.80
2016,08,18,03,27,18.80
2016,08,18,03,28,18.70
2016,08,18,03,29,18.70
2016,08,18,03,30,18.70
2016,08,18,03,31,18.70
2016,08,18,03,32,18.60
2016,08,18,03,33,18.60
2016,08,18,03,34,18.60
2016,08,18,03,35,18.60
2016,08,18,03,36,18.60
2016,08,18,03,37,18.60
2016,08,18,03,38,18.60
2016,08,18,03,39,18.60
2016,08,18,03,40,18.60
2016,08,18,03,41,18.50
2016,08,18,03,42,18.50
2016,08,18,03,43,18.50
2016,08,18,03,44,18.40
2016,08,18,03,45,18.40
2016,08,18,03,46,18.40
2016,08,18,03,47,18.40
2016,08,18,03,48,18.40
2016,08,18,03,49,18.30
2016,08,18,03,50,18.30
2016,08,18,03,51,18.30
2016,08,18,03,52,18.20
2016,08,18,03,53,18.20
2016,08,18,03,54,18.20
2016,08,18,03,55,18.10
2016,08,18,03,56,18.10
2016,08,18,03,57,18.10
2016,08,18,03,58,18.10
2016,08,18,03,59,18.10
2016,08,18,04,00,18.10
2016,08,18,04,01,18.10
2016,08,18,04,02,18.10
2016,08,18,04,03,18.10
2016,08,18,04,04,18.10
2016,08,18,04,05,18.10
2016,08,18,04,06,18.00
2016,08,18,04,07,18.00
2016,08,18,04,08,18.00
2016,08,18,04,09,18.00
2016,08,18,04,10,18.00
2016,08,18,04,11,18.10
2016,08,18,04,12,18.20
2016,08,18,04,13,18.20
2016,08,18,04,14,18.30
2016,08,18,04,15,18.40
2016,08,18,04,16,18.50
2016,08,18,04,17,18.60
2016,08,18,04,18,18.70
2016,08,18,04,19,18.80
2016,08,18,04,20,18.80
2016,08,18,04,21,18.90
2016,08,18,04,22,18.90
2016,08,18,04,23,18.90
2016,08,18,04,24,18.90
2016,08,18,04,25,18.90
2016,08,18,04,26,18.90
2016,08,18,04,27,18.90
2016,08,18,04,28,18.90
2016,08,18,04,29,19.00
2016,08,18,04,30,19.00
2016,08,18,04,31,19.00
2016,08,18,04,32,19.00
2016,08,18,04,33,19.00
2016,08,18,04,34,19.00
2016,08,18,04,35,19.00
2016,08,18,04,36,19.00
2016,08,18,04,37,19.00
2016,08,18,04,38,19.00
2016,08,18,04,39,18.90
2016,08,18,04,40,18.90
2016,08,18,04,41,18.90
2016,08,18,04,42,18.80
2016,08,18,04,43,18.80
2016,08,18,04,44,18.80
2016,08,18,04,45,18.70
2016,08,18,04,46,18.70
2016,08,18,04,47,18.70
2016,08,18,04,48,18.70
2016,08,18,04,49,18.60
2016,08,18,04,50,18.60
2016,08,18,04,51,18.60
2016,08,18,04,52,18.60
2016,08,18,04,53,18.60
2016,08,18,04,54,18.60
2016,08,18,04,55,18.60
2016,08,18,04,56,18.70
2016,08,18,04,57,18.70
2016,08,18,04,58,18.70
2016,08,18,04,59,18.70
2016,08,18,05,00,18.70
2016,08,18,05,01,18.70
2016,08,18,05,02,18.60
2016,08,18,05,03,18.60
2016,08,18,05,04,18.60
2016,08,18,05,05,18.60
2016,08,18,05,06,18.60
2016,08,18,05,07,18.50
2016,08,18,05,08,18.50
2016,08,18,05,09,18.40
2016,08,18,05,10,18.40
2016,08,18,05,11,18.40
2016,08,18,05,12,18.40
2016,08,18,05,13,18.40
2016,08,18,05,14,18.40
2016,08,18,05,15,18.40
2016,08,18,05,16,18.40
2016,08,18,05,17,18.50
2016,08,18,05,18,18.50
2016,08,18,05,19,18.50
2016,08,18,05,20,18.60
2016,08,18,05,21,18.60
2016,08,18,05,22,18.70
2016,08,18,05,23,18.70
2016,08,18,05,24,18.70
2016,08,18,05,25,18.70
2016,08,18,05,26,18.70
2016,08,18,05,27,18.70
2016,08,18,05,28,18.70
2016,08,18,05,29,18.70
2016,08,18,05,30,18.80
2016,08,18,05,31,18.80
2016,08,18,05,32,18.80
2016,08,18,05,33,18.70
2016,08,18,05,34,18.70
2016,08,18,05,35,18.70
2016,08,18,05,36,18.70
2016,08,18,05,37,18.70
2016,08,18,05,38,18.60
2016,08,18,05,39,18.60
2016,08,18,05,40,18.50
2016,08,18,05,41,18.50
2016,08,18,05,42,18.40
2016,08,18,05,43,18.40
2016,08,18,05,44,18.40
2016,08,18,05,45,18.30
2016,08,18,05,46,18.30
2016,08,18,05,47,18.30
2016,08,18,05,48,18.20
2016,08,18,05,49,18.20
2016,08,18,05,50,18.20
2016,08,18,05,51,18.20
2016,08,18,05,52,18.20
2016,08,18,05,53,18.10
2016,08,18,05,54,18.10
2016,08,18,05,55,18.10
2016,08,18,05,56,18.20
2016,08,18,05,57,18.20
2016,08,18,05,58,18.20
2016,08,18,05,59,18.20
2016,08,18,06,00,18.30
2016,08,18,06,01,18.30
2016,08,18,06,02,18.40
2016,08,18,06,03,18.50
2016,08,18,06,04,18.50
2016,08,18,06,05,18.60
2016,08,18,06,06,18.70
2016,08,18,06,07,18.70
2016,08,18,06,08,18.80
2016,08,18,06,09,18.80
2016,08,18,06,10,18.80
2016,08,18,06,11,18.80
2016,08,18,06,12,18.80
2016,08,18,06,13,18.80
2016,08,18,06,14,18.80
2016,08,18,06,15,18.80
2016,08,18,06,16,18.80
2016,08,18,06,17,18.80
2016,08,18,06,18,18.80
2016,08,18,06,19,18.80
2016,08,18,06,20,18.80
2016,08,18,06,21,18.70
2016,08,18,06,22,18.70
2016,08,18,06,23,18.70
2016,08,18,06,24,18.60
2016,08,18,06,25,18.60
2016,08,18,06,26,18.60
2016,08,18,06,27,18.60
2016,08,18,06,28,18.50
2016,08,18,06,29,18.50
2016,08,18,06,30,18.50
2016,08,18,06,31,18.50
2016,08,18,06,32,18.50
2016,08,18,06,33,18.50
2016,08,18,06,34,18.50
2016,08,18,06,35,18.50
2016,08,18,06,36,18.50
2016,08,18,06,37,18.50
2016,08,18,06,38,18.60
2016,08,18,06,39,18.60
2016,08,18,06,40,18.60
2016,08,18,06,41,18.70
2016,08,18,06,42,18.70
2016,08,18,06,43,18.80
2016,08,18,06,44,18.90
2016,08,18,06,45,18.90
2016,08,18,06,46,19.00
2016,08,18,06,47,19.10
2016,08,18,06,48,19.10
2016,08,18,06,49,19.20
2016,08,18,06,50,19.30
2016,08,18,06,51,19.30
2016,08,18,06,52,19.40
2016,08,18,06,53,19.40
2016,08,18,06,54,19.40
2016,08,18,06,55,19.40
2016,08,18,06,56,19.40
2016,08,18,06,57,19.50
2016,08,18,06,58,19.50
2016,08,18,06,59,19.50
2016,08,18,07,00,19.60
2016,08,18,07,01,19.60
2016,08,18,07,02,19.60
2016,08,18,07,03,19.70
2016,08,18,07,04,19.70
2016,08,18,07,05,19.70
2016,08,18,07,06,19.80
2016,08,18,07,07,19.80
2016,08,18,07,08,19.80
2016,08,18,07,09,19.90
2016,08,18,07,10,19.90
2016,08,18,07,11,19.90
2016,08,18,07,12,19.90
2016,08,18,07,13,19.90
2016,08,18,07,14,19.90
2016,08,18,07,15,19.90
2016,08,18,07,16,20.00
2016,08,18,07,17,20.00
2016,08,18,07,18,20.00
2016,08,18,07,19,20.10
2016,08,18,07,20,20.10
2016,08,18,07,21,20.20
2016,08,18,07,22,20.20
2016,08,18,07,23,20.30
2016,08,18,07,24,20.30
2016,08,18,07,25,20.40
2016,08,18,07,26,20.40
2016,08,18,07,27,20.50
2016,08,18,07,28,20.50
2016,08,18,07,29,20.50
2016,08,18,07,30,20.60
2016,08,18,07,31,20.50
2016,08,18,07,32,20.60
2016,08,18,07,33,20.60
2016,08,18,07,34,20.60
2016,08,18,07,35,20.70
2016,08,18,07,36,20.80
2016,08,18,07,37,20.90
2016,08,18,07,38,21.00
2016,08,18,07,39,21.00
2016,08,18,07,40,21.10
2016,08,18,07,41,21.10
2016,08,18,07,42,21.20
2016,08,18,07,43,21.30
2016,08,18,07,44,21.30
2016,08,18,07,45,21.30
2016,08,18,07,46,21.30
2016,08,18,07,47,21.40
2016,08,18,07,48,21.40
2016,08,18,07,49,21.40
2016,08,18,07,50,21.40
2016,08,18,07,51,21.40
2016,08,18,07,52,21.40
2016,08,18,07,53,21.40
2016,08,18,07,54,21.50
2016,08,18,07,55,21.50
2016,08,18,07,56,21.60
2016,08,18,07,57,21.60
2016,08,18,07,58,21.60
2016,08,18,07,59,21.60
2016,08,18,08,00,21.70
2016,08,18,08,01,21.80
2016,08,18,08,02,21.80
2016,08,18,08,03,21.80
2016,08,18,08,04,21.80
2016,08,18,08,05,21.80
2016,08,18,08,06,21.90
2016,08,18,08,07,21.90
2016,08,18,08,08,22.00
2016,08,18,08,09,22.00
2016,08,18,08,10,22.10
2016,08,18,08,11,22.10
2016,08,18,08,12,22.20
2016,08,18,08,13,22.20
2016,08,18,08,14,22.30
2016,08,18,08,15,22.30
2016,08,18,08,16,22.40
2016,08,18,08,17,22.40
2016,08,18,08,18,22.40
2016,08,18,08,19,22.50
2016,08,18,08,20,22.50
2016,08,18,08,21,22.60
2016,08,18,08,22,22.60
2016,08,18,08,23,22.60
2016,08,18,08,24,22.60
2016,08,18,08,25,22.60
2016,08,18,08,26,22.60
2016,08,18,08,27,22.60
2016,08,18,08,28,22.60
2016,08,18,08,29,22.70
2016,08,18,08,30,22.80
2016,08,18,08,31,22.80
2016,08,18,08,32,22.90
2016,08,18,08,33,22.90
2016,08,18,08,34,23.00
2016,08,18,08,35,23.10
2016,08,18,08,36,23.10
2016,08,18,08,37,23.10
2016,08,18,08,38,23.10
2016,08,18,08,39,23.10
2016,08,18,08,40,23.10
2016,08,18,08,41,23.10
2016,08,18,08,42,23.10
2016,08,18,08,43,23.10
2016,08,18,08,44,23.10
2016,08,18,08,45,23.10
2016,08,18,08,46,23.10
2016,08,18,08,47,23.10
2016,08,18,08,48,23.10
2016,08,18,08,49,23.10
2016,08,18,08,50,23.10
2016,08,18,08,51,23.10
2016,08,18,08,52,23.10
2016,08,18,08,53,23.20
2016,08,18,08,54,23.20
2016,08,18,08,55,23.20
2016,08,18,08,56,23.30
2016,08,18,08,57,23.30
2016,08,18,08,58,23.30
2016,08,18,08,59,23.40
2016,08,18,09,00,23.60
2016,08,18,09,01,23.70
2016,08,18,09,02,23.80
2016,08,18,09,03,23.90
2016,08,18,09,04,23.90
2016,08,18,09,05,24.00
2016,08,18,09,06,24.10
2016,08,18,09,07,24.10
2016,08,18,09,08,24.20
2016,08,18,09,09,24.20
2016,08,18,09,10,24.30
2016,08,18,09,11,24.30
2016,08,18,09,12,24.30
2016,08,18,09,13,24.30
2016,08,18,09,14,24.30
2016,08,18,09,15,24.40
2016,08,18,09,16,24.40
2016,08,18,09,17,24.50
2016,08,18,09,18,24.60
2016,08,18,09,19,24.80
2016,08,18,09,20,24.80
2016,08,18,09,21,24.80
2016,08,18,09,22,24.90
2016,08,18,09,23,24.90
2016,08,18,09,24,25.00
2016,08,18,09,25,25.10
2016,08,18,09,26,25.20
2016,08,18,09,27,25.20
2016,08,18,09,28,25.30
2016,08,18,09,29,25.30
2016,08,18,09,30,25.20
2016,08,18,09,31,25.20
2016,08,18,09,32,25.20
2016,08,18,09,33,25.20
2016,08,18,09,34,25.20
2016,08,18,09,35,25.20
2016,08,18,09,36,25.10
2016,08,18,09,37,25.00
2016,08,18,09,38,25.00
2016,08,18,09,39,25.00
2016,08,18,09,40,25.00
2016,08,18,09,41,25.10
2016,08,18,09,42,25.10
2016,08,18,09,43,25.20
2016,08,18,09,44,25.30
2016,08,18,09,45,25.30
2016,08,18,09,46,25.40
2016,08,18,09,47,25.50
2016,08,18,09,48,25.50
2016,08,18,09,49,25.60
2016,08,18,09,50,25.70
2016,08,18,09,51,25.70
2016,08,18,09,52,25.80
2016,08,18,09,53,25.90
2016,08,18,09,54,25.90
2016,08,18,09,55,26.00
2016,08,18,09,56,26.10
2016,08,18,09,57,26.20
2016,08,18,09,58,26.30
2016,08,18,09,59,26.30
2016,08,18,10,00,26.30
2016,08,18,10,01,26.40
2016,08,18,10,02,26.40
2016,08,18,10,03,26.40
2016,08,18,10,04,26.30
2016,08,18,10,05,26.30
2016,08,18,10,06,26.30
2016,08,18,10,07,26.40
2016,08,18,10,08,26.50
2016,08,18,10,09,26.50
2016,08,18,10,10,26.60
2016,08,18,10,11,26.60
2016,08,18,10,12,26.70
2016,08,18,10,13,26.70
2016,08,18,10,14,26.70
2016,08,18,10,15,26.70
2016,08,18,10,16,26.70
2016,08,18,10,17,26.70
2016,08,18,10,18,26.70
2016,08,18,10,19,26.70
2016,08,18,10,20,26.70
2016,08,18,10,21,26.60
2016,08,18,10,22,26.60
2016,08,18,10,23,26.50
2016,08,18,10,24,26.60
2016,08,18,10,25,26.60
2016,08,18,10,26,26.70
2016,08,18,10,27,26.70
2016,08,18,10,28,26.70
2016,08,18,10,29,26.70
2016,08,18,10,30,26.70
2016,08,18,10,31,26.60
2016,08,18,10,32,26.60
2016,08,18,10,33,26.60
2016,08,18,10,34,26.50
2016,08,18,10,35,26.50
2016,08,18,10,36,26.40
2016,08,18,10,37,26.50
2016,08,18,10,38,26.50
2016,08,18,10,39,26.60
2016,08,18,10,40,26.70
2016,08,18,10,41,26.80
2016,08,18,10,42,26.80
2016,08,18,10,43,26.90
2016,08,18,10,44,27.00
2016,08,18,10,45,27.10
2016,08,18,10,46,27.10
2016,08,18,10,47,27.10
2016,08,18,10,48,27.10
2016,08,18,10,49,27.00
2016,08,18,10,50,26.90
2016,08,18,10,51,26.90
2016,08,18,10,52,27.00
2016,08,18,10,53,27.10
2016,08,18,10,54,27.20
2016,08,18,10,55,27.30
2016,08,18,10,56,27.40
2016,08,18,10,57,27.40
2016,08,18,10,58,27.40
2016,08,18,10,59,27.40
2016,08,18,11,00,27.40
2016,08,18,11,01,27.40
2016,08,18,11,02,27.40
2016,08,18,11,03,27.30
2016,08,18,11,04,27.30
2016,08,18,11,05,27.40
2016,08,18,11,06,27.50
2016,08,18,11,07,27.60
2016,08,18,11,08,27.70
2016,08,18,11,09,27.90
2016,08,18,11,10,28.00
2016,08,18,11,11,28.10
2016,08,18,11,12,28.10
2016,08,18,11,13,28.10
2016,08,18,11,14,28.20
2016,08,18,11,15,28.10
2016,08,18,11,16,28.10
2016,08,18,11,17,28.20
2016,08,18,11,18,28.20
2016,08,18,11,19,28.30
2016,08,18,11,20,28.30
2016,08,18,11,21,28.40
2016,08,18,11,22,28.40
2016,08,18,11,23,28.50
2016,08,18,11,24,28.60
2016,08,18,11,25,28.60
2016,08,18,11,26,28.70
2016,08,18,11,27,28.70
2016,08,18,11,28,28.70
2016,08,18,11,29,28.70
2016,08,18,11,30,28.80
2016,08,18,11,31,28.80
2016,08,18,11,32,28.80
2016,08,18,11,33,28.70
2016,08,18,11,34,28.60
2016,08,18,11,35,28.60
2016,08,18,11,36,28.50
2016,08,18,11,37,28.40
2016,08,18,11,38,28.30
2016,08,18,11,39,28.30
2016,08,18,11,40,28.30
2016,08,18,11,41,28.40
2016,08,18,11,42,28.50
2016,08,18,11,43,28.60
2016,08,18,11,44,28.80
2016,08,18,11,45,28.90
2016,08,18,11,46,29.00
2016,08,18,11,47,29.00
2016,08,18,11,48,29.10
2016,08,18,11,49,29.20
2016,08,18,11,50,29.20
2016,08,18,11,51,29.20
2016,08,18,11,52,29.20
2016,08,18,11,53,29.30
2016,08,18,11,54,29.30
2016,08,18,11,55,29.30
2016,08,18,11,56,29.20
2016,08,18,11,57,29.20
2016,08,18,11,58,29.10
2016,08,18,11,59,29.20
2016,08,18,12,00,29.30
2016,08,18,12,01,29.30
2016,08,18,12,02,29.40
2016,08,18,12,03,29.50
2016,08,18,12,04,29.50
2016,08,18,12,05,29.60
2016,08,18,12,06,29.60
2016,08,18,12,07,29.70
2016,08,18,12,08,29.80
2016,08,18,12,09,29.90
2016,08,18,12,10,29.90
2016,08,18,12,11,29.90
2016,08,18,12,12,29.90
2016,08,18,12,13,29.90
2016,08,18,12,14,29.90
2016,08,18,12,15,29.90
2016,08,18,12,16,29.90
2016,08,18,12,17,29.90
2016,08,18,12,18,29.90
2016,08,18,12,19,30.00
2016,08,18,12,20,30.00
2016,08,18,12,21,30.10
2016,08,18,12,22,30.20
2016,08,18,12,23,30.20
2016,08,18,12,24,30.30
2016,08,18,12,25,30.20
2016,08,18,12,26,30.20
2016,08,18,12,27,30.20
2016,08,18,12,28,30.20
2016,08,18,12,29,30.20
2016,08,18,12,30,30.20
2016,08,18,12,31,30.20
2016,08,18,12,32,30.20
2016,08,18,12,33,30.20
2016,08,18,12,34,30.30
2016,08,18,12,35,30.30
2016,08,18,12,36,30.30
2016,08,18,12,37,30.30
2016,08,18,12,38,30.30
2016,08,18,12,39,30.40
2016,08,18,12,40,30.40
2016,08,18,12,41,30.40
2016,08,18,12,42,30.40
2016,08,18,12,43,30.50
2016,08,18,12,44,30.50
2016,08,18,12,45,30.60
2016,08,18,12,46,30.60
2016,08,18,12,47,30.50
2016,08,18,12,48,30.40
2016,08,18,12,49,30.40
2016,08,18,12,50,30.40
2016,08,18,12,51,30.50
2016,08,18,12,52,30.50
2016,08,18,12,53,30.60
2016,08,18,12,54,30.70
2016,08,18,12,55,30.80
2016,08,18,12,56,30.90
2016,08,18,12,57,30.90
2016,08,18,12,58,31.00
2016,08,18,12,59,31.10
2016,08,18,13,00,31.20
2016,08,18,13,01,31.20
2016,08,18,13,02,31.30
2016,08,18,13,03,31.10
2016,08,18,13,04,31.00
2016,08,18,13,05,30.70
2016,08,18,13,06,30.60
2016,08,18,13,07,30.50
2016,08,18,13,08,30.50
2016,08,18,13,09,30.50
2016,08,18,13,10,30.50
2016,08,18,13,11,30.60
2016,08,18,13,12,30.60
2016,08,18,13,13,30.70
2016,08,18,13,14,30.70
2016,08,18,13,15,30.80
2016,08,18,13,16,30.90
2016,08,18,13,17,31.00
2016,08,18,13,18,31.20
2016,08,18,13,19,31.30
2016,08,18,13,20,31.30
2016,08,18,13,21,31.30
2016,08,18,13,22,31.40
2016,08,18,13,23,31.40
2016,08,18,13,24,31.40
2016,08,18,13,25,31.30
2016,08,18,13,26,31.30
2016,08,18,13,27,31.20
2016,08,18,13,28,31.20
2016,08,18,13,29,31.10
2016,08,18,13,30,31.10
2016,08,18,13,31,31.10
2016,08,18,13,32,31.10
2016,08,18,13,33,31.20
2016,08,18,13,34,31.30
2016,08,18,13,35,31.40
2016,08,18,13,36,31.40
2016,08,18,13,37,31.50
2016,08,18,13,38,31.60
2016,08,18,13,39,31.60
2016,08,18,13,40,31.70
2016,08,18,13,41,31.70
2016,08,18,13,42,31.70
2016,08,18,13,43,31.70
2016,08,18,13,44,31.60
2016,08,18,13,45,31.60
2016,08,18,13,46,31.60
2016,08,18,13,47,31.60
2016,08,18,13,48,31.60
2016,08,18,13,49,31.60
2016,08,18,13,50,31.50
2016,08,18,13,51,31.50
2016,08,18,13,52,31.40
2016,08,18,13,53,31.40
2016,08,18,13,54,31.40
2016,08,18,13,55,31.40
2016,08,18,13,56,31.30
2016,08,18,13,57,31.30
2016,08,18,13,58,31.20
2016,08,18,13,59,31.20
2016,08,18,14,00,31.30
2016,08,18,14,01,31.30
2016,08,18,14,02,31.30
2016,08,18,14,03,31.30
2016,08,18,14,04,31.20
2016,08,18,14,05,31.20
2016,08,18,14,06,31.30
2016,08,18,14,07,31.10
2016,08,18,14,08,31.00
2016,08,18,14,09,31.00
2016,08,18,14,10,31.00
2016,08,18,14,11,31.10
2016,08,18,14,12,31.20
2016,08,18,14,13,31.30
2016,08,18,14,14,31.40
2016,08,18,14,15,31.50
2016,08,18,14,16,31.50
2016,08,18,14,17,31.60
2016,08,18,14,18,31.60
2016,08,18,14,19,31.50
2016,08,18,14,20,31.50
2016,08,18,14,21,31.60
2016,08,18,14,22,31.50
2016,08,18,14,23,31.50
2016,08,18,14,24,31.60
2016,08,18,14,25,31.60
2016,08,18,14,26,31.60
2016,08,18,14,27,31.70
2016,08,18,14,28,31.80
2016,08,18,14,29,31.80
2016,08,18,14,30,31.80
2016,08,18,14,31,31.70
2016,08,18,14,32,31.70
2016,08,18,14,33,31.80
2016,08,18,14,34,31.80
2016,08,18,14,35,31.90
2016,08,18,14,36,31.90
2016,08,18,14,37,31.90
2016,08,18,14,38,31.90
2016,08,18,14,39,31.90
2016,08,18,14,40,31.90
2016,08,18,14,41,31.90
2016,08,18,14,42,31.80
2016,08,18,14,43,31.80
2016,08,18,14,44,31.80
2016,08,18,14,45,31.80
2016,08,18,14,46,31.90
2016,08,18,14,47,32.00
2016,08,18,14,48,32.10
2016,08,18,14,49,32.10
2016,08,18,14,50,31.90
2016,08,18,14,51,31.90
2016,08,18,14,52,31.90
2016,08,18,14,53,31.90
2016,08,18,14,54,31.90
2016,08,18,14,55,32.00
2016,08,18,14,56,32.00
2016,08,18,14,57,32.00
2016,08,18,14,58,31.90
2016,08,18,14,59,31.90
2016,08,18,15,00,32.00
2016,08,18,15,01,32.00
2016,08,18,15,02,32.10
2016,08,18,15,03,32.20
2016,08,18,15,04,32.10
2016,08,18,15,05,32.00
2016,08,18,15,06,31.80
2016,08,18,15,07,31.70
2016,08,18,15,08,31.70
2016,08,18,15,09,31.70
2016,08,18,15,10,31.80
2016,08,18,15,11,31.90
2016,08,18,15,12,31.90
2016,08,18,15,13,31.80
2016,08,18,15,14,31.90
2016,08,18,15,15,31.90
2016,08,18,15,16,31.90
2016,08,18,15,17,31.90
2016,08,18,15,18,31.90
2016,08,18,15,19,32.00
2016,08,18,15,20,32.00
2016,08,18,15,21,31.90
2016,08,18,15,22,31.90
2016,08,18,15,23,31.90
2016,08,18,15,24,31.90
2016,08,18,15,25,31.90
2016,08,18,15,26,32.00
2016,08,18,15,27,32.00
2016,08,18,15,28,32.00
2016,08,18,15,29,32.00
2016,08,18,15,30,31.90
2016,08,18,15,31,31.90
2016,08,18,15,32,31.80
2016,08,18,15,33,31.80
2016,08,18,15,34,31.80
2016,08,18,15,35,31.80
2016,08,18,15,36,31.90
2016,08,18,15,37,32.00
2016,08,18,15,38,32.10
2016,08,18,15,39,32.20
2016,08,18,15,40,32.20
2016,08,18,15,41,32.30
2016,08,18,15,42,32.30
2016,08,18,15,43,32.30
2016,08,18,15,44,32.40
2016,08,18,15,45,32.50
2016,08,18,15,46,32.50
2016,08,18,15,47,32.60
2016,08,18,15,48,32.70
2016,08,18,15,49,32.70
2016,08,18,15,50,32.70
2016,08,18,15,51,32.70
2016,08,18,15,52,32.70
2016,08,18,15,53,32.70
2016,08,18,15,54,32.60
2016,08,18,15,55,32.60
2016,08,18,15,56,32.50
2016,08,18,15,57,32.30
2016,08,18,15,58,32.10
2016,08,18,15,59,32.10
2016,08,18,16,00,32.00
2016,08,18,16,01,32.00
2016,08,18,16,02,32.00
2016,08,18,16,03,32.00
2016,08,18,16,04,32.10
2016,08,18,16,05,32.20
2016,08,18,16,06,32.20
2016,08,18,16,07,32.30
2016,08,18,16,08,32.30
2016,08,18,16,09,32.30
2016,08,18,16,10,32.40
2016,08,18,16,11,32.50
2016,08,18,16,12,32.50
2016,08,18,16,13,32.60
2016,08,18,16,14,32.50
2016,08,18,16,15,32.50
2016,08,18,16,16,32.50
2016,08,18,16,17,32.50
2016,08,18,16,18,32.50
2016,08,18,16,19,32.50
2016,08,18,16,20,32.50
2016,08,18,16,21,32.60
2016,08,18,16,22,32.60
2016,08,18,16,23,32.60
2016,08,18,16,24,32.70
2016,08,18,16,25,32.70
2016,08,18,16,26,32.70
2016,08,18,16,27,32.70
2016,08,18,16,28,32.70
2016,08,18,16,29,32.70
2016,08,18,16,30,32.80
2016,08,18,16,31,32.80
2016,08,18,16,32,32.80
2016,08,18,16,33,32.90
2016,08,18,16,34,32.90
2016,08,18,16,35,32.90
2016,08,18,16,36,32.90
2016,08,18,16,37,32.90
2016,08,18,16,38,32.90
2016,08,18,16,39,33.00
2016,08,18,16,40,33.10
2016,08,18,16,41,33.10
2016,08,18,16,42,33.00
2016,08,18,16,43,33.00
2016,08,18,16,44,33.00
2016,08,18,16,45,33.00
2016,08,18,16,46,33.00
2016,08,18,16,47,33.00
2016,08,18,16,48,33.00
2016,08,18,16,49,33.00
2016,08,18,16,50,33.00
2016,08,18,16,51,33.00
2016,08,18,16,52,33.10
2016,08,18,16,53,33.10
2016,08,18,16,54,33.10
2016,08,18,16,55,33.10
2016,08,18,16,56,33.00
2016,08,18,16,57,32.90
2016,08,18,16,58,32.90
2016,08,18,16,59,32.90
2016,08,18,17,00,32.90
2016,08,18,17,01,33.00
2016,08,18,17,02,33.00
2016,08,18,17,03,33.00
2016,08,18,17,04,33.00
2016,08,18,17,05,33.10
2016,08,18,17,06,33.10
2016,08,18,17,07,33.10
2016,08,18,17,08,33.10
2016,08,18,17,09,33.10
2016,08,18,17,10,33.10
2016,08,18,17,11,33.20
2016,08,18,17,12,33.20
2016,08,18,17,13,33.10
2016,08,18,17,14,33.10
2016,08,18,17,15,33.00
2016,08,18,17,16,32.80
2016,08,18,17,17,32.70
2016,08,18,17,18,32.60
2016,08,18,17,19,32.50
2016,08,18,17,20,32.40
2016,08,18,17,21,32.30
2016,08,18,17,22,32.30